TimeEST,TemperatureF,Dew PointF,Humidity,Sea Level PressureIn,VisibilityMPH,Wind Direction,Wind SpeedMPH,Gust SpeedMPH,PrecipitationIn,Events,Conditions,WindDirDegrees,DateUTC
12:15 AM,35.6,21.2,56,30.26,10.0,NNW,20.7,29.9,N/A,,Mostly Cloudy,330,2013-11-20 05:15:00
12:35 AM,35.6,21.2,56,30.26,10.0,NW,21.9,26.5,N/A,,Scattered Clouds,310,2013-11-20 05:35:00
12:55 AM,35.6,19.4,52,30.28,10.0,NNW,17.3,28.8,N/A,,Mostly Cloudy,330,2013-11-20 05:55:00
1:15 AM,35.6,19.4,52,30.29,10.0,NW,17.3,24.2,N/A,,Mostly Cloudy,320,2013-11-20 06:15:00
1:35 AM,35.6,19.4,52,30.30,10.0,NNW,18.4,26.5,N/A,,Mostly Cloudy,330,2013-11-20 06:35:00
1:55 AM,35.6,19.4,52,30.31,10.0,NNW,19.6,26.5,0.01,,Overcast,340,2013-11-20 06:55:00
2:15 AM,33.8,19.4,56,30.31,10.0,NW,20.7,27.6,N/A,,Mostly Cloudy,320,2013-11-20 07:15:00
2:35 AM,33.8,21.2,60,30.32,10.0,NNW,17.3,28.8,N/A,,Mostly Cloudy,330,2013-11-20 07:35:00
2:55 AM,33.8,21.2,60,30.32,10.0,NNW,18.4,26.5,N/A,,Scattered Clouds,340,2013-11-20 07:55:00
3:15 AM,35.6,21.2,56,30.33,10.0,NNW,16.1,24.2,N/A,,Mostly Cloudy,340,2013-11-20 08:15:00
3:35 AM,35.6,21.2,56,30.34,10.0,NNW,17.3,25.3,N/A,,Mostly Cloudy,330,2013-11-20 08:35:00
3:55 AM,35.6,21.2,56,30.34,10.0,North,16.1,28.8,N/A,,Overcast,350,2013-11-20 08:55:00
4:15 AM,35.6,21.2,56,30.35,10.0,NNW,15.0,26.5,0.01,,Overcast,340,2013-11-20 09:15:00
4:35 AM,35.6,21.2,56,30.36,10.0,NNW,19.6,25.3,0.02,,Overcast,340,2013-11-20 09:35:00
4:55 AM,35.6,21.2,56,30.37,10.0,NNW,17.3,27.6,0.02,,Overcast,330,2013-11-20 09:55:00
5:15 AM,35.6,21.2,56,30.38,10.0,North,18.4,23.0,N/A,,Overcast,350,2013-11-20 10:15:00
5:35 AM,35.6,21.2,56,30.39,10.0,North,18.4,24.2,N/A,,Overcast,350,2013-11-20 10:35:00
5:55 AM,35.6,21.2,56,30.40,10.0,NNW,19.6,26.5,N/A,,Overcast,330,2013-11-20 10:55:00
6:15 AM,35.6,21.2,56,30.41,10.0,North,16.1,25.3,N/A,,Mostly Cloudy,360,2013-11-20 11:15:00
6:35 AM,33.8,19.4,56,30.42,10.0,North,19.6,25.3,N/A,,Scattered Clouds,360,2013-11-20 11:35:00
6:55 AM,35.6,19.4,52,30.43,10.0,North,19.6,25.3,0.01,,Partly Cloudy,350,2013-11-20 11:55:00
7:15 AM,35.6,19.4,52,30.43,10.0,North,18.4,27.6,N/A,,Scattered Clouds,350,2013-11-20 12:15:00
7:35 AM,35.6,19.4,52,30.44,10.0,North,18.4,24.2,N/A,,Scattered Clouds,350,2013-11-20 12:35:00
7:55 AM,35.6,19.4,52,30.45,10.0,North,17.3,25.3,N/A,,Partly Cloudy,360,2013-11-20 12:55:00
8:15 AM,35.6,19.4,52,30.47,10.0,North,20.7,26.5,N/A,,Partly Cloudy,360,2013-11-20 13:15:00
8:35 AM,35.6,21.2,56,30.48,10.0,North,17.3,24.2,N/A,,Scattered Clouds,350,2013-11-20 13:35:00
8:55 AM,35.6,21.2,56,30.49,10.0,NNW,17.3,24.2,N/A,,Mostly Cloudy,340,2013-11-20 13:55:00
9:15 AM,37.4,21.2,52,30.50,10.0,NNW,17.3,24.2,N/A,,Mostly Cloudy,340,2013-11-20 14:15:00
9:35 AM,37.4,21.2,52,30.51,10.0,North,17.3,24.2,N/A,,Overcast,350,2013-11-20 14:35:00
9:55 AM,37.4,21.2,52,30.51,10.0,NNW,18.4,24.2,0.01,,Mostly Cloudy,340,2013-11-20 14:55:00
10:15 AM,39.2,23.0,52,30.51,10.0,NNW,12.7,21.9,0.01,,Mostly Cloudy,330,2013-11-20 15:15:00
10:35 AM,37.4,23.0,56,30.51,10.0,NNW,16.1,21.9,0.01,,Mostly Cloudy,340,2013-11-20 15:35:00
10:55 AM,39.2,19.4,45,30.50,10.0,North,17.3,24.2,0.01,,Partly Cloudy,350,2013-11-20 15:55:00
11:15 AM,39.2,19.4,45,30.51,10.0,North,17.3,25.3,N/A,,Clear,360,2013-11-20 16:15:00
11:35 AM,39.2,21.2,49,30.50,10.0,North,15.0,21.9,N/A,,Clear,360,2013-11-20 16:35:00
11:55 AM,39.2,21.2,49,30.50,10.0,North,19.6,24.2,N/A,,Clear,360,2013-11-20 16:55:00
12:15 PM,39.2,21.2,49,30.51,10.0,North,13.8,19.6,N/A,,Clear,350,2013-11-20 17:15:00
12:35 PM,39.2,21.2,49,30.51,10.0,NNW,16.1,21.9,N/A,,Clear,340,2013-11-20 17:35:00
12:55 PM,39.2,21.2,49,30.51,10.0,North,16.1,23.0,N/A,,Clear,350,2013-11-20 17:55:00
1:15 PM,39.2,19.4,45,30.51,10.0,North,15.0,24.2,N/A,,Clear,360,2013-11-20 18:15:00
1:35 PM,39.2,19.4,45,30.51,10.0,North,13.8,20.7,0.01,,Clear,350,2013-11-20 18:35:00
1:55 PM,39.2,19.4,45,30.51,10.0,North,15.0,21.9,0.01,,Clear,350,2013-11-20 18:55:00
2:15 PM,39.2,17.6,42,30.51,10.0,North,13.8,23.0,0.01,,Clear,360,2013-11-20 19:15:00
2:35 PM,39.2,17.6,42,30.51,10.0,North,15.0,20.7,0.01,,Clear,350,2013-11-20 19:35:00
2:55 PM,39.2,17.6,42,30.52,10.0,North,16.1,-,0.01,,Clear,360,2013-11-20 19:55:00
3:15 PM,39.2,17.6,42,30.52,10.0,NNW,12.7,18.4,N/A,,Clear,340,2013-11-20 20:15:00
3:35 PM,39.2,17.6,42,30.52,10.0,North,16.1,21.9,0.01,,Clear,350,2013-11-20 20:35:00
3:55 PM,39.2,19.4,45,30.53,10.0,North,11.5,19.6,0.02,,Clear,360,2013-11-20 20:55:00
4:15 PM,39.2,19.4,45,30.54,10.0,North,16.1,-,N/A,,Clear,350,2013-11-20 21:15:00
4:35 PM,39.2,19.4,45,30.54,10.0,North,13.8,19.6,N/A,,Clear,360,2013-11-20 21:35:00
4:55 PM,39.2,19.4,45,30.55,10.0,NNW,15.0,18.4,N/A,,Clear,340,2013-11-20 21:55:00
5:15 PM,39.2,19.4,45,30.56,10.0,North,11.5,17.3,N/A,,Clear,350,2013-11-20 22:15:00
5:35 PM,39.2,19.4,45,30.56,10.0,North,15.0,18.4,N/A,,Clear,360,2013-11-20 22:35:00
5:55 PM,39.2,19.4,45,30.56,10.0,North,10.4,19.6,N/A,,Clear,360,2013-11-20 22:55:00
6:15 PM,39.2,19.4,45,30.57,10.0,North,11.5,-,0.01,,Clear,10,2013-11-20 23:15:00
6:35 PM,39.2,19.4,45,30.57,10.0,North,12.7,19.6,0.01,,Clear,360,2013-11-20 23:35:00
6:55 PM,39.2,19.4,45,30.57,10.0,North,11.5,17.3,0.01,,Clear,350,2013-11-20 23:55:00
7:15 PM,39.2,19.4,45,30.58,10.0,North,11.5,17.3,N/A,,Clear,10,2013-11-21 00:15:00
7:35 PM,41.0,21.2,45,30.58,10.0,North,11.5,17.3,N/A,,Clear,360,2013-11-21 00:35:00
7:55 PM,41.0,19.4,42,30.59,10.0,North,9.2,-,N/A,,Clear,10,2013-11-21 00:55:00
8:15 PM,41.0,21.2,45,30.59,10.0,North,11.5,-,0.01,,Clear,360,2013-11-21 01:15:00
8:35 PM,41.0,19.4,42,30.59,10.0,NNE,12.7,17.3,0.02,,Clear,20,2013-11-21 01:35:00
8:55 PM,41.0,17.6,39,30.60,10.0,NNE,10.4,-,0.02,,Clear,20,2013-11-21 01:55:00
9:15 PM,41.0,19.4,42,30.60,10.0,NNE,12.7,16.1,N/A,,Clear,20,2013-11-21 02:15:00
9:35 PM,41.0,17.6,39,30.59,10.0,NNE,11.5,17.3,0.01,,Clear,30,2013-11-21 02:35:00
9:55 PM,41.0,19.4,42,30.60,10.0,NNE,8.1,16.1,0.01,,Clear,20,2013-11-21 02:55:00
10:15 PM,41.0,19.4,42,30.60,10.0,North,12.7,-,N/A,,Clear,10,2013-11-21 03:15:00
10:35 PM,41.0,19.4,42,30.60,10.0,NNE,9.2,-,0.01,,Clear,30,2013-11-21 03:35:00
10:55 PM,41.0,19.4,42,30.60,10.0,NE,10.4,-,0.01,,Clear,40,2013-11-21 03:55:00
11:15 PM,41.0,21.2,45,30.60,10.0,NNE,10.4,-,N/A,,Clear,30,2013-11-21 04:15:00
11:35 PM,39.2,21.2,49,30.60,10.0,NNE,11.5,-,N/A,,Clear,30,2013-11-21 04:35:00
11:55 PM,39.2,21.2,49,30.60,10.0,NNE,10.4,-,0.02,,Clear,30,2013-11-21 04:55:00